Regional Weather Roundup
Issued by NWS

Home | Current Version | Previous Version | Graphics & Text | Print | Product List | Glossary On
Versions: 1 2 3 4 5 6 7 8 9 10 11 12 13 14 15 16 17 18 19 20 21 22 23 24 25 26 27 28 29 30 31 32 33 34 35 36 37 38 39 40 41 42 43 44 45 46 47 48 49 50
416
ASUS43 KTOP 060008
RWRKS

WEATHER ROUNDUP FOR KANSAS
NATIONAL WEATHER SERVICE GOODLAND KS
600 PM CST MON DEC 05 2016

NOTE:  "FAIR" INDICATES FEW OR NO CLOUDS BELOW 12,000 FEET WITH NO
SIGNIFICANT WEATHER AND/OR OBSTRUCTIONS TO VISIBILITY.

KSZ001>006-013>018-027>032-041>047-060100-
NORTHWEST KANSAS

CITY           SKY/WX    TMP DP  RH WIND       PRES   REMARKS
GOODLAND       CLEAR     39  -3  17 N21G36    29.73R WCI  29
6HR MIN TEMP:  39; 6HR MAX TEMP:  62;

HAYS           CLEAR     47  30  51 N10       29.65R
HILL CITY      CLEAR     36  26  67 NW6       29.68R
6HR MIN TEMP:  36; 6HR MAX TEMP:  54;

RUSSELL        CLEAR     43  34  70 SE7       29.63R
6HR MIN TEMP:  42; 6HR MAX TEMP:  56;

$$

KSZ061>065-074>080-084>089-060100-
SOUTHWEST KANSAS

CITY           SKY/WX    TMP DP  RH WIND       PRES   REMARKS
DODGE CITY     CLEAR     46  30  53 NE9       29.60R
6HR MIN TEMP:  44; 6HR MAX TEMP:  59;

ELKHART          N/A     50  23  34 SE7         N/A
GARDEN CITY    CLEAR     47  30  51 NE10      29.62R
6HR MIN TEMP:  47; 6HR MAX TEMP:  57;

GREAT BEND     CLEAR     43  32  65 SE9       29.64R
LIBERAL        CLEAR     46  27  46 S9        29.56R
PRATT          CLEAR     41  32  69 E6        29.65R
6HR MIN TEMP:  41; 6HR MAX TEMP:  53;

$$

KSZ066>073-081>083-090>101-060100-
SOUTHEAST KANSAS

CITY           SKY/WX    TMP DP  RH WIND       PRES   REMARKS
CHANUTE        CLEAR     37  36  96 E3        29.73R
6HR MIN TEMP:  37; 6HR MAX TEMP:  52;

COFFEYVILLE    CLEAR     43  38  82 SW3       29.74R
6HR MIN TEMP:  42; 6HR MAX TEMP:  50;

HUTCHINSON     CLEAR     43  36  76 SE7       29.68R
6HR MIN TEMP:  43; 6HR MAX TEMP:  54;

MEDICINE LODGE   N/A     45  36  70 SE8       29.63R
NEWTON         CLEAR     44  34  67 S6        29.68R
PARSONS        CLEAR     40  36  86 SE3       29.74R
6HR MIN TEMP:  40; 6HR MAX TEMP:  51;

WICHITA INTL   CLEAR     44  35  70 SE3       29.67R
6HR MIN TEMP:  44; 6HR MAX TEMP:  54;

WICHITA JABRA  CLEAR     44  36  73 S7        29.68R
6HR MIN TEMP:  44; 6HR MAX TEMP:  54;

WICHITA MCCONL CLEAR     45  36  70 S3        29.69R
WINFIELD       CLEAR     44  38  79 SE5       29.70R
6HR MIN TEMP:  43; 6HR MAX TEMP:  54;

$$

KSZ007>012-019>026-033>040-048>060-102>105-060100-
NORTHEAST KANSAS

CITY           SKY/WX    TMP DP  RH WIND       PRES   REMARKS
CONCORDIA      CLEAR     42  34  73 S7        29.66R
6HR MIN TEMP:  42; 6HR MAX TEMP:  53;

EMPORIA        CLEAR     40  35  83 SE8       29.70R
6HR MIN TEMP:  40; 6HR MAX TEMP:  52;

LAWRENCE       CLEAR     37  33  85 SE10      29.72F WCI  30
6HR MIN TEMP:  37; 6HR MAX TEMP:  52;

MANHATTAN      CLEAR     40  34  79 CALM      29.68S
6HR MIN TEMP:  40; 6HR MAX TEMP:  57;

MARYSVILLE     CLEAR     43  36  75 CALM      29.67S
OLATHE IND     CLEAR     43  33  68 SE8       29.74S
6HR MIN TEMP:  43; 6HR MAX TEMP:  51;

OLATHE EXE     CLEAR     41  33  73 SE10      29.74S
6HR MIN TEMP:  41; 6HR MAX TEMP:  50;

SALINA         CLEAR     44  35  70 S7        29.68R
6HR MIN TEMP:  42; 6HR MAX TEMP:  55;

TOPEKA BILLARD CLEAR     44  34  67 SE5       29.71S
6HR MIN TEMP:  44; 6HR MAX TEMP:  52;

TOPEKA FORBES  CLEAR     43  34  70 SE8       29.70F
6HR MIN TEMP:  42; 6HR MAX TEMP:  52;

$$




USA.gov is the U.S. government's official web portal to all federal, state and local government web resources and services.